[[{"header":{"parameterUnit":"m.s-1","parameterCategory":1,"la1":30.2991,"la2":30.254,"lo1":-89.0895,"lo2":-89.0444,"dy":0.0017,"dx":0.0017,"nx":28,"ny":28,"refTime":"2025-01-05T09:00:00:Z","depth":0,"parameterNumber":2,"parameterNumberName":"U-component_of_WINDS"},"data":[0,0,0,0,0,0,0,0,0,0,0,0,0,0,0,0,0,0,0,0,0,0,0,0,0,0,0,0,0,0,0,0,0,0,0,0,0,0,0,0,0,0,0,0,0,0,0,0,0,0,0,0,0,0,0,0,0,0,0.5302,0.5302,0,0.5254,0.5253,0.5252,0.5254,0.5255,0.5256,0.5256,0.5203,0.5201,0.5199,0,0,0,0,0,0,0,0,0,0,0,0,0,0.5395,0.5393,0.5302,0.5302,0.5301,0.5254,0.5253,0.5252,0.5254,0.5255,0.5256,0.5257,0.5204,0.5201,0.5199,0,0,0,0,0,0,0,0,0,0,0,0,0,0.5351,0.5392,0.5302,0.5296,0.5295,0.5254,0.5253,0.5252,0.5254,0.5255,0.5256,0.5257,0.5204,0.5201,0.5198,0.5159,0,0,0.5189,0.5187,0,0,0,0,0,0,0,0,0.5353,0.5348,0.5298,0.5297,0.5296,0.5261,0.5266,0.5221,0.5254,0.5269,0.5256,0.5257,0.5221,0.5217,0.5205,0.5156,0.5154,0.5189,0.5187,0.5185,0.5184,0,0,0,0,0,0,0,0.5356,0.535,0.5283,0.5297,0.5296,0.5295,0.529,0.5257,0.524,0.5268,0.5268,0.5263,0.5221,0.5208,0.5204,0.5153,0.5189,0.5186,0.5184,0.5183,0.5069,0.5068,0,0,0,0,0,0,0.5361,0.5352,0.5285,0.5282,0.5328,0.5293,0.5287,0.5271,0.524,0.5237,0.5262,0.5263,0.5213,0.5208,0.5202,0.5153,0.5185,0.5182,0.5181,0.507,0.5069,0.5067,0,0,0,0,0,0,0.5363,0.5355,0.5286,0.5317,0.5308,0.529,0.5272,0.527,0.5257,0.5236,0.5232,0.5252,0.5214,0.5206,0.517,0.5151,0.5181,0.5178,0.5072,0.507,0.5068,0.5056,0,0,0,0,0,0,0.5366,0.5356,0.5341,0.5317,0.5307,0.5255,0.5271,0.5268,0.5252,0.5253,0.5226,0.5222,0.5214,0.5174,0.5167,0.5148,0.5176,0.5073,0.5071,0.5069,0.5057,0.5054,0.505,0,0,0,0,0,0.5369,0.5339,0.534,0.5332,0.5288,0.5254,0.5249,0.524,0.5251,0.5235,0.5222,0.5223,0.5155,0.517,0.5162,0.5142,0.5074,0.5071,0.5069,0.5059,0.5054,0.505,0,0,0,0,0,0,0.536,0.5335,0.5337,0.5298,0.5278,0.5255,0.5235,0.5236,0.5212,0.5214,0.5204,0.5198,0.5161,0.5148,0.5165,0.5102,0.5116,0.5111,0.5111,0.5107,0.5103,0.5106,0.5173,0,0,0,0,0,0.5354,0.5329,0.5309,0.5276,0.5267,0.5253,0.5238,0.5234,0.5212,0.5204,0.5188,0.5166,0.514,0.5123,0.5098,0.5056,0.505,0.5038,0.5035,0.5032,0.5028,0.5005,0.4999,0.5059,0.5059,0.5059,0,0,0.5339,0.5323,0.5308,0.5274,0.5259,0.5233,0.5246,0.5218,0.5198,0.5199,0.5164,0.5151,0.5127,0.5088,0.5069,0.5076,0.501,0.5029,0.5027,0.5024,0.5001,0.4996,0.4991,0.5057,0.5057,0.5058,0,0,0.5301,0.5286,0.5258,0.5242,0.5219,0.521,0.5204,0.518,0.5172,0.5137,0.5137,0.5114,0.5069,0.5052,0.5037,0.4994,0.4994,0.4986,0.4966,0.4944,0.4939,0.4935,0.4919,0.4913,0.4982,0.4982,0.4982,0,0.5286,0.5248,0.5242,0.5215,0.52,0.5201,0.5172,0.5157,0.5126,0.5115,0.5123,0.5068,0.5051,0.5008,0.4998,0.4986,0.4977,0.4988,0.4941,0.4936,0.4932,0.4917,0.4911,0.4981,0.4981,0.4982,0.4982,0,0.5231,0.5205,0.5184,0.5156,0.5139,0.511,0.5099,0.5083,0.508,0.507,0.5034,0.5015,0.4986,0.4976,0.4973,0.4932,0.4937,0.4943,0.4956,0.4926,0.4911,0.4905,0.498,0.498,0.4981,0.4981,0,0,0.5182,0.5153,0.5145,0.5133,0.5108,0.5087,0.5059,0.5032,0.5018,0.4997,0.4972,0.4936,0.4942,0.4925,0.492,0.4901,0.4867,0.4909,0.4909,0.4901,0.482,0.4815,0.4808,0.4868,0.4867,0.4866,0.4822,0,0.514,0.5091,0.5086,0.5041,0.5017,0.5019,0.4994,0.4976,0.4967,0.4944,0.4933,0.4907,0.4917,0.4907,0.4888,0.4875,0.485,0.4879,0.4844,0.4843,0.4848,0.48,0.4794,0.4753,0.4816,0.4815,0.4815,0,0.5084,0.5063,0.5016,0.4996,0.4985,0.4963,0.4938,0.4917,0.4897,0.4892,0.4874,0.4872,0.4843,0.4859,0.4817,0.4837,0.4823,0.4814,0.4812,0.4807,0.4825,0.4793,0.474,0.4734,0.4805,0.4806,0.4807,0,0.5052,0.5012,0.4979,0.4969,0.4944,0.4929,0.4918,0.4899,0.4883,0.4861,0.4851,0.4826,0.4811,0.4792,0.4783,0.4796,0.4742,0.4758,0.4735,0.4735,0.4722,0.4723,0.4665,0.4716,0.4716,0.4716,0.4716,0,0.5004,0.4975,0.4965,0.4944,0.4912,0.4907,0.4874,0.4864,0.4847,0.4824,0.4825,0.4803,0.4794,0.4771,0.4764,0.473,0.4724,0.4718,0.4716,0.4717,0.4717,0.4706,0.4708,0.4714,0.4715,0.4715,0.4715,0,0.4962,0.4954,0.4918,0.4899,0.4893,0.487,0.4853,0.4833,0.4825,0.4796,0.4789,0.4775,0.4748,0.4738,0.4705,0.47,0.4661,0.4662,0.4668,0.4667,0.4645,0.4647,0.4576,0.4567,0.4625,0.4625,0.4624,0,0.4931,0.4909,0.4888,0.4874,0.4862,0.4838,0.4823,0.4817,0.4801,0.4777,0.476,0.4733,0.4711,0.4668,0.4654,0.4629,0.4628,0.4606,0.4624,0.4626,0.4626,0.4627,0.4625,0.4602,0.4601,0.46,0.46,0,0.4877,0.4875,0.4853,0.483,0.4812,0.4793,0.4775,0.4763,0.4754,0.4736,0.4709,0.4692,0.4659,0.4632,0.4606,0.4594,0.4595,0.4595,0.4588,0.4588,0.4591,0.4588,0.4657,0.4596,0.4596,0.4597,0.4597,0.4597,0.4839,0.482,0.4802,0.4778,0.4764,0.4747,0.4728,0.4718,0.4695,0.4668,0.4667,0.4637,0.4618,0.4584,0.4571,0.4547,0.4553,0.4544,0.4541,0.4538,0.4536,0.4597,0.4543,0.4543,0.4543,0.4543,0.4543,0,0.4784,0.4773,0.4751,0.4726,0.4707,0.4712,0.4693,0.4676,0.4651,0.4633,0.4613,0.4581,0.4556,0.4542,0.4516,0.45,0.45,0.4493,0.4493,0.449,0.4533,0.4541,0.4494,0.4494,0.4494,0.4494,0.4494,0.4494,0.4753,0.472,0.4716,0.4677,0.4666,0.4638,0.4626,0.4611,0.4597,0.4563,0.4542,0.4533,0.4517,0.4491,0.4467,0.4464,0.4453,0.4446,0.4443,0.4482,0.4487,0.4492,0.4499,0.4444,0.4444,0.4402,0.4402,0.4401]},{"header":{"parameterUnit":"m.s-1","parameterCategory":1,"la1":30.2991,"la2":30.254,"lo1":-89.0895,"lo2":-89.0444,"dy":0.0017,"dx":0.0017,"nx":28,"ny":28,"refTime":"2025-01-05T09:00:00:Z","depth":0,"parameterNumber":3,"parameterNumberName":"V-component_of_WINDS"},"data":[0,0,0,0,0,0,0,0,0,0,0,0,0,0,0,0,0,0,0,0,0,0,0,0,0,0,0,0,0,0,0,0,0,0,0,0,0,0,0,0,0,0,0,0,0,0,0,0,0,0,0,0,0,0,0,0,0,0,-6.9007,-6.9009,0,-6.918,-6.9182,-6.9184,-6.9102,-6.9098,-6.9094,-6.9089,-6.9261,-6.927,-6.9278,0,0,0,0,0,0,0,0,0,0,0,0,0,-6.86,-6.8608,-6.9007,-6.9009,-6.9011,-6.918,-6.9182,-6.9185,-6.9103,-6.9098,-6.9092,-6.9087,-6.9258,-6.9269,-6.9279,0,0,0,0,0,0,0,0,0,0,0,0,0,-6.8775,-6.861,-6.9006,-6.8991,-6.8991,-6.9179,-6.9182,-6.9185,-6.9104,-6.9098,-6.9091,-6.9085,-6.9255,-6.9268,-6.9281,-6.9492,0,0,-6.932,-6.9326,0,0,0,0,0,0,0,0,-6.8765,-6.879,-6.8991,-6.8992,-6.8993,-6.9113,-6.9102,-6.9288,-6.9106,-6.9061,-6.9089,-6.9082,-6.9217,-6.9233,-6.9279,-6.95,-6.9507,-6.9321,-6.9329,-6.9335,-6.9338,0,0,0,0,0,0,0,-6.8753,-6.8782,-6.9075,-6.8994,-6.8995,-6.8974,-6.8991,-6.9137,-6.9174,-6.9065,-6.9059,-6.9081,-6.9216,-6.9267,-6.9283,-6.951,-6.9321,-6.9333,-6.9341,-6.9346,-6.9912,-6.9919,0,0,0,0,0,0,-6.8742,-6.8773,-6.907,-6.908,-6.8861,-6.8986,-6.9006,-6.9081,-6.9172,-6.9179,-6.9086,-6.9077,-6.9248,-6.9268,-6.9289,-6.9542,-6.9335,-6.9347,-6.9354,-6.9904,-6.9913,-6.9921,0,0,0,0,0,0,-6.8734,-6.877,-6.9063,-6.8925,-6.8961,-6.9,-6.9085,-6.9088,-6.9139,-6.9188,-6.9194,-6.9132,-6.9244,-6.927,-6.9442,-6.9547,-6.9353,-6.9365,-6.9896,-6.9907,-6.9917,-7.0051,0,0,0,0,0,0,-6.8723,-6.8767,-6.8849,-6.8928,-6.8969,-6.9216,-6.9092,-6.9096,-6.9162,-6.9151,-6.9233,-6.924,-6.9241,-6.9423,-6.9455,-6.9561,-6.9375,-6.9887,-6.9901,-6.9914,-7.0037,-7.0065,-7.0088,0,0,0,0,0,-6.8708,-6.8879,-6.8854,-6.889,-6.9073,-6.9222,-6.9245,-6.9244,-6.9171,-6.9253,-6.9285,-6.9237,-6.953,-6.9442,-6.9477,-6.9588,-6.988,-6.9897,-6.9913,-7.0025,-7.0059,-7.0088,0,0,0,0,0,0,-6.881,-6.8889,-6.8862,-6.9064,-6.9137,-6.9208,-6.9312,-6.928,-6.9374,-6.9359,-6.9352,-6.9371,-6.955,-6.9586,-6.9486,-6.9797,-6.9693,-6.9718,-6.9767,-6.98,-6.9825,-6.9812,-6.9385,0,0,0,0,0,-6.8857,-6.8973,-6.9035,-6.9207,-6.9245,-6.9272,-6.9337,-6.933,-6.9405,-6.9435,-6.9479,-6.9552,-6.966,-6.9732,-6.9834,-7.0041,-7.0057,-7.0135,-7.0161,-7.0182,-7.0202,-7.0314,-7.0349,-6.9975,-6.9974,-6.9974,0,0,-6.8953,-6.901,-6.9084,-6.9229,-6.9285,-6.9404,-6.9299,-6.9429,-6.9517,-6.9454,-6.962,-6.9655,-6.9735,-6.9926,-7.0012,-6.9962,-7.0309,-7.0202,-7.0219,-7.0228,-7.0334,-7.037,-7.0401,-6.9986,-6.9984,-6.9982,0,0,-6.9189,-6.9245,-6.9394,-6.9452,-6.9539,-6.9556,-6.9592,-6.9668,-6.9689,-6.9856,-6.9811,-6.9914,-7.0101,-7.016,-7.0215,-7.0473,-7.0432,-7.0506,-7.064,-7.0749,-7.0778,-7.0804,-7.0896,-7.0929,-7.0527,-7.0527,-7.0527,0,-6.9297,-6.9477,-6.9474,-6.9609,-6.9673,-6.9623,-6.9773,-6.9829,-6.9944,-6.9989,-6.9931,-7.0164,-7.0215,-7.0418,-7.0481,-7.0527,-7.0567,-7.0497,-7.0775,-7.0801,-7.0825,-7.0912,-7.0947,-7.0535,-7.0534,-7.0534,-7.0533,0,-6.9605,-6.9731,-6.984,-6.9955,-7.0031,-7.0173,-7.0189,-7.0266,-7.0252,-7.0275,-7.0444,-7.0503,-7.0617,-7.0664,-7.0651,-7.0866,-7.0832,-7.0775,-7.0671,-7.0869,-7.0951,-7.0984,-7.0547,-7.0544,-7.0542,-7.054,0,0,-6.9911,-7.0022,-7.0062,-7.0113,-7.0205,-7.0301,-7.0439,-7.0552,-7.0618,-7.0698,-7.0813,-7.0973,-7.092,-7.0982,-7.0975,-7.1071,-7.1271,-7.1001,-7.1003,-7.1049,-7.151,-7.1552,-7.1591,-7.1244,-7.1251,-7.1256,-7.1503,0,-7.0154,-7.0399,-7.04,-7.0625,-7.0739,-7.0693,-7.0813,-7.0881,-7.0906,-7.1005,-7.1031,-7.1144,-7.1067,-7.1104,-7.1196,-7.1227,-7.1363,-7.1209,-7.135,-7.1355,-7.1331,-7.1634,-7.168,-7.1911,-7.1535,-7.154,-7.1544,0,-7.047,-7.0563,-7.08,-7.0875,-7.0923,-7.1031,-7.1134,-7.123,-7.1306,-7.1316,-7.1386,-7.1364,-7.1503,-7.1395,-7.1585,-7.148,-7.1537,-7.1561,-7.157,-7.1583,-7.1462,-7.1655,-7.1984,-7.2019,-7.1595,-7.1591,-7.1587,0,-7.067,-7.0853,-7.1019,-7.1064,-7.1155,-7.1232,-7.1273,-7.1343,-7.141,-7.1499,-7.1542,-7.1646,-7.1702,-7.1782,-7.1787,-7.1708,-7.1979,-7.1871,-7.1991,-7.1991,-7.205,-7.2046,-7.2393,-7.2087,-7.2087,-7.2086,-7.2085,0,-7.0941,-7.1088,-7.111,-7.1212,-7.1374,-7.1372,-7.1532,-7.1566,-7.1628,-7.1734,-7.1699,-7.1799,-7.1801,-7.1902,-7.1907,-7.2064,-7.2089,-7.2101,-7.21,-7.2104,-7.2103,-7.2142,-7.2126,-7.2095,-7.2093,-7.2091,-7.209,0,-7.1191,-7.1212,-7.1389,-7.1461,-7.1483,-7.1599,-7.166,-7.1756,-7.1776,-7.1911,-7.1942,-7.1975,-7.2092,-7.2106,-7.2242,-7.2246,-7.2434,-7.2417,-7.241,-7.2407,-7.2525,-7.2514,-7.2909,-7.296,-7.2621,-7.2625,-7.2627,0,-7.1363,-7.1475,-7.1559,-7.1629,-7.1675,-7.1787,-7.1856,-7.1858,-7.1931,-7.2025,-7.2109,-7.2224,-7.2316,-7.2505,-7.2539,-7.2643,-7.2628,-7.2759,-7.2643,-7.2643,-7.2629,-7.2623,-7.2634,-7.2781,-7.2785,-7.2788,-7.2791,0,-7.1666,-7.1671,-7.1772,-7.1878,-7.1962,-7.2045,-7.2122,-7.2181,-7.2192,-7.2275,-7.2396,-7.2467,-7.2607,-7.2721,-7.2823,-7.2862,-7.2829,-7.2827,-7.286,-7.2865,-7.2856,-7.2863,-7.2471,-7.2818,-7.2815,-7.2813,-7.2812,-7.281,-7.1882,-7.198,-7.2054,-7.2168,-7.2227,-7.2301,-7.2395,-7.2428,-7.2529,-7.2644,-7.2638,-7.2771,-7.2842,-7.2977,-7.3024,-7.3126,-7.3083,-7.3131,-7.3143,-7.3155,-7.3167,-7.284,-7.3145,-7.3144,-7.3143,-7.3143,-7.3142,0,-7.2183,-7.2229,-7.2334,-7.2445,-7.2534,-7.2496,-7.2579,-7.2656,-7.2774,-7.2844,-7.2936,-7.3074,-7.3184,-7.3227,-7.3334,-7.3407,-7.3394,-7.3435,-7.343,-7.3439,-7.32,-7.316,-7.3444,-7.3444,-7.3444,-7.3444,-7.3444,-7.3444,-7.235,-7.2513,-7.2526,-7.2717,-7.2761,-7.2892,-7.2943,-7.301,-7.3066,-7.3223,-7.3314,-7.3342,-7.3401,-7.3512,-7.361,-7.362,-7.366,-7.3709,-7.3711,-7.3487,-7.3456,-7.3427,-7.339,-7.3717,-7.3718,-7.3942,-7.3944,-7.3946]}]]